Regional Weather Roundup
Issued by NWS Wakefield, VA

Home | Current Version | Previous Version | Graphics & Text | Print | Product List | Glossary On
Versions: 1 2 3 4 5 6 7 8 9 10 11 12 13 14 15 16 17 18 19 20 21 22 23 24 25 26 27 28 29 30 31 32 33 34 35 36 37 38 39 40 41 42 43 44 45 46 47 48 49 50
772
ASUS41 KAKQ 240615
RWRAKQ

REGIONAL WEATHER ROUNDUP
NATIONAL WEATHER SERVICE WAKEFIELD VA
200 AM EDT SUN SEP 24 2017

Note: "fair" indicates few or no clouds below 12,000 feet with no
significant weather and/or obstructions to visibility. * = Denotes
station may not report precipitation (e.g., rain,snow,etc.),
thunder or fog.

VAZ042-051-052>054-056-240700-
NORTHERN VIRGINIA

CITY           SKY/WX    TMP DP  RH WIND       PRES   REMARKS
WASH NATIONAL  MOCLDY    70  63  78 CALM      30.07S
DULLES         CLEAR     62  61  96 CALM      30.08S
FORT BELVOIR   CLEAR     62  61  95 CALM      30.06F
QUANTICO         N/A     66  64  93 NW8       30.07S
FREDERICKSBRG* CLEAR     63  63 100 CALM      30.06F
STAFFORD*      CLEAR     58  58 100 CALM      30.11S
WARRENTON      FOG       54  51  91 CALM      30.08S VSB 3/4
CULPEPER*      CLEAR     61  57  87 CALM      30.09S
MANASSAS*      CLEAR     59  58  96 CALM      30.08F
LEESBURG*      CLEAR     63  63 100 CALM      30.09S
WINCHESTER     CLEAR     55  55 100 CALM      30.10S
FRONT ROYAL*   CLEAR     61  54  77 S5        30.10F
LURAY*         CLEAR     55  54  94 CALM      30.13S
$$

VAZ048-049-060>072-079>083-240700-
CENTRAL AND SOUTH CENTRAL VIRGINIA

CITY           SKY/WX    TMP DP  RH WIND       PRES   REMARKS
RICHMOND       PTCLDY    68  65  90 CALM      30.06F
CHESTERFIELD*  NOT AVBL
PETERSBURG*    PTCLDY    61  61 100 CALM      30.07F
HANOVER        PTCLDY    64  63  96 CALM      30.07F
TAPPAHANNOCK*  PTCLDY   N/A N/A N/A CALM      30.07S
QUINTON*       FAIR      64  64 100 CALM      30.06S
CHARLOTTSVILLE CLEAR     62  60  93 CALM      30.10F
GORDONSVILLE*  CLEAR     58  58 100 CALM      30.08F
ORANGE*        CLEAR     59  57  94 CALM      30.09F
LOUISA*        CLEAR     57  55  94 CALM      30.08F FOG
BUMPASS*       FAIR      61  61 100 W8        30.07F
FARMVILLE*     PTCLDY    62  62 100 CALM      30.07F
CREWE*         FAIR      64  64 100 CALM      30.07F
FORT PICKETT*  FAIR      65  65 100 W5        30.07F
CHASE CITY*    FAIR      70  68  91 CALM      30.08S
CLARKSVILLE*   FAIR      70  63  78 CALM      30.07S
SOUTH HILL*    CLEAR     63  63  99 CALM      30.13S
LAWRENCEVILLE* FAIR      65  64  96 CALM      30.07S
EMPORIA*       CLEAR     63  63 100 CALM      30.07F
$$

VAZ088>098-240700-
SOUTHEAST VIRGINIA

CITY           SKY/WX    TMP DP  RH WIND       PRES   REMARKS
NORFOLK        CLEAR     71  69  93 CALM      30.04F
VIRGINIA BEACH PTCLDY    67  64  90 CALM      30.03F
NORFOLK NAVAL  CLEAR     70  66  87 CALM      30.05F
WEST POINT*    PTCLDY    63  63 100 CALM      30.07S
SALUDA*        FAIR      68  68 100 CALM      30.05F
NEWPORT NEWS   CLEAR     66  65  96 CALM      30.05S
LANGLEY AFB    CLEAR     68  68 100 CALM      30.04S
FORT EUSTIS    CLEAR     68  65  90 CALM      30.02F
WILLIAMSBURG*  CLEAR     70  70 100 CALM      30.06S
HR EXEC AP*    FAIR      61  60  97 CALM      30.05F
FRANKLIN*      CLEAR     64  63  97 CALM      30.05F
US460-WAKEFLD  PTCLDY    65  65 100 CALM      30.06S
$$

VAZ020-022-025-037-045-240700-
WEST CENTRAL AND SOUTHWEST VIRGINIA

CITY           SKY/WX    TMP DP  RH WIND       PRES   REMARKS
STAUNTON*      CLEAR     53  52  95 CALM      30.15F
WAYNESBORO*    PTCLDY    57  57  99 SW5       30.15S
HOT SPRINGS VA CLEAR     64  46  52 CALM      30.26S
LYNCHBURG      PTCLDY    65  59  81 CALM      30.11F
DANVILLE       PTCLDY    61  60  97 CALM      30.09S
SOUTH BOSTON*  FAIR      62  60  96 CALM      30.08S
MARTINSVILLE   PTCLDY    57  56  97 CALM      30.13S
ROANOKE        PTCLDY    61  58  90 W3        30.14F
BLACKSBURG     CLEAR     58  55  89 CALM      30.20S
DUBLIN*        CLEAR     58  55  92 CALM      30.18S
MARION*        CLEAR     57  51  82 CALM      30.21S
HILLSVILLE*    CLEAR     61  52  71 CALM      30.17F
RICHLANDS*     FAIR      67  53  60 E3        30.18R
WISE*          CLEAR     64  55  72 S3        30.18S
ABINGDON*      CLEAR     66  58  75 E10       30.15S
$$

MDZ021>025-VAZ099-100-240700-
SOUTHERN MARYLAND AND THE DELMARVA PENINSULA

CITY           SKY/WX    TMP DP  RH WIND       PRES   REMARKS
PATUXENT RIVER CLEAR     62  61  96 W3        30.04S
BAY BRIDGE APT CLEAR     70  64  83 CALM      30.04F
LEONARDTOWN    CLEAR     63  61  94 CALM      30.07S
DOVER          CLEAR     66  60  79 NW3       30.02S
GEORGETOWN     FOG       65  63  93 S3        30.04F VSB 1
EASTON         PTCLDY    65  63  92 CALM      30.08S
CAMBRIDGE      CLEAR     63  63 100 CALM      30.04S
SALISBURY      PTCLDY    64  64 100 CALM      30.04S FOG
OCEAN CITY     PTCLDY    65  65 100 W3        30.04S
WALLOPS ISLAND CLEAR     68  67  96 SW5       30.05S
ACCOMACK*        N/A     65  65  99 CALM      30.05S FOG
$$

NCZ012>017-030>032-240700-
NORTH CENTRAL AND EASTERN NORTH CAROLINA

CITY           SKY/WX    TMP DP  RH WIND       PRES   REMARKS
ROANOKE RAPIDS FAIR      63  63 100 CALM      30.06S
RALEIGH        MOCLDY    69  64  84 NE5       30.07S
ELIZABETH CITY CLEAR     71  70  96 NE6       30.04F
AHOSKIE*       CLEAR     65  65 100 CALM      30.06S
EDENTON*       CLEAR     69  67  93 CALM      30.05S
CURRITUCK*     CLEAR     68  67  94 CALM      30.05S
KILL DEVIL HLS CLEAR     69  64  85 CALM      30.02F
MANTEO         CLEAR     70  66  88 NE7       30.04F
CAPE HATTERAS  CLOUDY    72  69  90 NE7       30.02F
TARBORO*       NOT AVBL
GOLDSBORO      PTCLDY    69  69 100 CALM      30.03S
WASHINGTON     CLEAR     66  65  96 CALM      30.05F
GREENVILLE     PTCLDY    66  66 100 N3        30.06F
NEW BERN       PTCLDY    70  68  93 NE6       30.04F
WILMINGTON     PTCLDY    71  69  93 NE8       30.01F
$$

VAZ048-240700-
ELSEWHERE

CITY           SKY/WX    TMP DP  RH WIND       PRES   REMARKS
HARRISBURG PA  CLEAR     67  64  90 NW8       30.07F
BALTIMORE      CLEAR     65  61  87 CALM      30.05S
ANNAPOLIS      CLEAR     71  67  87 W3        30.04F
ANDREWS AFB    CLEAR     62  61  96 CALM      30.05F
PHILADELPHIA   CLEAR     72  59  63 N3        30.04S
HENDERSON NC   PTCLDY    63  59  86 CALM      30.08S
GREENSBORO     MOCLDY    68  60  75 CALM      30.09S
ROCKY MOUNT    CLEAR     66  66 100 CALM      30.06F
$$

VAZ100-240700-
MARINE

STATION/POSITION TIME  TEMP    WIND        PRES    WAVE   SWELL
                       AIR SEA DIR/SP/G            HT/PER HT/PER
                 (UTC) (F)     (DEG/KT/KT) (MB)    (FT/S) (FT/S)
BRANDYWINE LGT   0524   75     290/  5/  6 1017.2
CAPE MAY NJ      0524   72 74  290/  2/  3 1016.3
LEWES DE         0524   70 74  270/  3/  4 1016.5
15NM E FENWICK I 0450   72 72  250/  6/  8 1017.4    4/ 8   3/ 8
OCEAN-CITY-INLET 0524   70 74  270/  3/  4 1017.4
WACHAPREAGUE VA  0524   69 77  270/  2/  3 1017.6
THOMAS POINT MD  0600   73 76  300/  6/  6   N/A
GOOSES REEF MD   0600   75 76  290/  6/  6 1018.1    0
COVE POINT MD    0524   74     290/  3/  5 1018.0
SOLOMONS ISLAND  0524   71 76  310/  2/  3 1017.1
BISHOPS HEAD MD  0524   75 78  300/  2/  3 1017.6
PINEY POINT MD   0530          320/  5/  6   N/A
POTOMAC MD       0600   75 76  310/  2/  4 1016.7    0
CAMBRIDGE MD     0518   69 77              1018.0
LEWISETTA VA     0524   71 78  250/  3/  3 1017.5
RAPPAHANNOCK LGT 0530          220/  5/  5 1018.1F
STINGRAY PT      0600   74 76  280/  6/  6 1017.6    0
YORK RVR RNG VA  0524   74     270/  3/  3 1018.1
YORKTOWN VA      0524   72 77   CALM  /  1 1017.2
JAMESTOWN VA     0600      79   50/  2/  4   N/A     0
DOMINION TERM VA 0524   74     270/  2/  2 1017.6
KIPTOPEKE VA     0518      76  100/  1/  2   N/A
CHES BAY BRIDGE  0518   74 76  100/  2/  3 1017.3
CAPE HENRY VA    0524   72     120/  3/  3   N/A
WILLOUBY STN VA  0518   74     190/  1/  2 1017.4
S CRANEY ISL VA  0524   71     270/  1/  1 1017.2
CAPE HENRY BUOY  0600      75                N/A     4/12   2/12
1ST LANDING BUOY 0600   74 76              1017.2    2/ 6
64NM E OF VA BCH 0550   69 69  360/  8/ 10 1017.3F   9/14  10/14
DUCK PIER NC     0524   73 76   60/ 10/ 12 1016.8
44100 DUCK FRF   0535      75                N/A     5/14   3/14
44056 DUCK FRF   0600      76                N/A     5/14   3/14
OREGON INLET NC  0518   71 78   40/  8/ 11 1016.9
HATTERAS NC      0524   72 79   50/  9/ 12 1016.4
DIAMOND SHLS NC  0550   73 75   30/ 16/ 17 1016.0S   7/15   7/15
CAPE LOOKOUT NC  0600   75      40/ 16/ 18 1015.9F
$$




USA.gov is the U.S. government's official web portal to all federal, state and local government web resources and services.